| time (UTC) | temp C | wind direction | speed KPH | gust KPH | rain 1hr cm | rain 24hr cm | rain mn cm | humidity % | barometer mb |
| 20260505124543 | 9 | 190 | 9.7 | 17.7 | 0.00 | 0.25 | 0.05 | 88 | 1004.3 |
| 20260505123037 | 8 | 234 | 8.0 | 14.5 | 0.00 | 0.25 | 0.05 | 88 | 1004.3 |
| 20260505121543 | 8 | 196 | 6.4 | 16.1 | 0.00 | 0.25 | 0.05 | 89 | 1004.3 |
| 20260505120041 | 8 | 173 | 8.0 | 17.7 | 0.00 | 0.25 | 0.05 | 88 | 1004.4 |
| 20260505114537 | 9 | 206 | 6.4 | 20.9 | 0.00 | 0.25 | 0.05 | 89 | 1004.3 |
| 20260505113036 | 9 | 198 | 9.7 | 22.5 | 0.00 | 0.25 | 0.05 | 86 | 1004.3 |
| 20260505111540 | 10 | 215 | 9.7 | 19.3 | 0.00 | 0.25 | 0.05 | 84 | 1004.3 |
| 20260505101545 | 9 | 232 | 11.3 | 24.1 | 0.00 | 0.25 | 0.05 | 78 | 1004.2 |
| 20260505100044 | 9 | 206 | 9.7 | 27.4 | 0.00 | 0.25 | 0.05 | 77 | 1004.0 |
| 20260505094539 | 8 | 244 | 11.3 | 25.7 | 0.00 | 0.25 | 0.05 | 77 | 1004.0 |
| 20260505093039 | 8 | 252 | 16.1 | 25.7 | 0.00 | 0.25 | 0.05 | 75 | 1004.1 |
| 20260505091540 | 8 | 227 | 8.0 | 22.5 | 0.00 | 0.25 | 0.05 | 78 | 1004.1 |
| 20260505090044 | 9 | 230 | 9.7 | 22.5 | 0.00 | 0.25 | 0.05 | 75 | 1004.1 |
| 20260505084552 | 8 | 227 | 6.4 | 16.1 | 0.00 | 0.25 | 0.05 | 78 | 1003.7 |
| 20260505083054 | 8 | 173 | 0.0 | 3.2 | 0.00 | 0.25 | 0.05 | 85 | 1003.5 |
| 20260505081537 | 8 | 0 | 0.0 | 0.0 | 0.00 | 0.25 | 0.05 | 87 | 1003.6 |
| 20260505080044 | 7 | 0 | 0.0 | 0.0 | 0.00 | 0.25 | 0.05 | 86 | 1003.8 |
| 20260505074543 | 7 | 0 | 0.0 | 0.0 | 0.00 | 0.25 | 0.05 | 85 | 1004.0 |
| 20260505073045 | 7 | 0 | 0.0 | 0.0 | 0.00 | 0.25 | 0.05 | 84 | 1004.3 |
| 20260505071546 | 7 | 0 | 0.0 | 0.0 | 0.00 | 0.25 | 0.05 | 88 | 1004.3 |
| 20260505070037 | 6 | 0 | 0.0 | 0.0 | 0.00 | 0.25 | 0.05 | 90 | 1004.4 |
| 20260505064537 | 6 | 0 | 0.0 | 0.0 | 0.00 | 0.25 | 0.05 | 90 | 1004.5 |
| 20260505063040 | 6 | 0 | 0.0 | 0.0 | 0.00 | 0.25 | 0.05 | 90 | 1004.6 |
| 20260505061539 | 6 | 0 | 0.0 | 1.6 | 0.03 | 0.25 | 0.05 | 90 | 1004.8 |
| 20260505060045 | 6 | 0 | 0.0 | 0.0 | 0.03 | 0.25 | 0.05 | 91 | 1005.0 |
| 20260505054549 | 6 | 0 | 0.0 | 0.0 | 0.03 | 0.25 | 0.05 | 90 | 1005.1 |
| 20260505053036 | 6 | 0 | 0.0 | 0.0 | 0.03 | 0.25 | 0.05 | 90 | 1005.2 |
| 20260505051542 | 5 | 0 | 0.0 | 0.0 | 0.00 | 0.23 | 0.03 | 90 | 1005.2 |
| 20260505041536 | 5 | 0 | 0.0 | 0.0 | 0.03 | 0.23 | 0.03 | 89 | 1005.2 |
| 20260505040037 | 5 | 0 | 0.0 | 0.0 | 0.00 | 0.20 | 0.00 | 89 | 1005.4 |
| 20260505034538 | 5 | 0 | 0.0 | 0.0 | 0.00 | 0.20 | 0.00 | 88 | 1005.4 |
| 20260505033043 | 6 | 0 | 0.0 | 0.0 | 0.00 | 0.20 | 0.00 | 86 | 1005.6 |
| 20260505031551 | 6 | 0 | 0.0 | 0.0 | 0.00 | 0.20 | 0.00 | 85 | 1005.5 |
| 20260505030037 | 6 | 0 | 0.0 | 0.0 | 0.00 | 0.20 | 0.00 | 82 | 1005.5 |
| 20260505024546 | 6 | 0 | 0.0 | 3.2 | 0.00 | 0.20 | 0.00 | 81 | 1005.4 |
| 20260505023046 | 7 | 0 | 0.0 | 0.0 | 0.00 | 0.20 | 0.00 | 75 | 1005.4 |
| 20260505021538 | 7 | 0 | 0.0 | 0.0 | 0.00 | 0.20 | 0.00 | 74 | 1005.6 |
| 20260505020037 | 7 | 0 | 0.0 | 8.0 | 0.00 | 0.20 | 0.00 | 71 | 1005.6 |
| 20260505014558 | 8 | 291 | 4.8 | 16.1 | 0.00 | 0.20 | 0.00 | 67 | 1005.6 |
| 20260505013036 | 7 | 240 | 8.0 | 16.1 | 0.00 | 0.20 | 0.00 | 69 | 1006.0 |
| 20260505011548 | 7 | 238 | 6.4 | 16.1 | 0.00 | 0.20 | 0.00 | 70 | 1005.9 |
| 20260505010040 | 8 | 225 | 4.8 | 14.5 | 0.00 | 0.20 | 0.00 | 68 | 1006.0 |
| 20260505004541 | 8 | 250 | 11.3 | 20.9 | 0.00 | 0.20 | 0.00 | 69 | 1005.9 |
| 20260505003038 | 8 | 271 | 12.9 | 27.4 | 0.00 | 0.20 | 0.00 | 67 | 1006.4 |
| 20260505001543 | 8 | 244 | 12.9 | 25.7 | 0.00 | 0.20 | 0.00 | 69 | 1006.4 |
| 20260505000037 | 8 | 257 | 17.7 | 33.8 | 0.00 | 0.20 | 0.00 | 68 | 1006.6 |
| 20260504234535 | 8 | 249 | 14.5 | 25.7 | 0.00 | 0.20 | 0.00 | 67 | 1006.7 |
| 20260504233041 | 8 | 280 | 12.9 | 24.1 | 0.00 | 0.20 | 0.00 | 67 | 1006.6 |
| 20260504231541 | 8 | 267 | 9.7 | 24.1 | 0.00 | 0.20 | 0.00 | 66 | 1006.8 |
| 20260504230046 | 8 | 267 | 11.3 | 22.5 | 0.00 | 0.20 | 0.00 | 68 | 1006.9 |
| 20260504224545 | 8 | 232 | 11.3 | 27.4 | 0.00 | 0.20 | 0.00 | 69 | 1007.3 |
| 20260504223037 | 8 | 261 | 11.3 | 19.3 | 0.00 | 0.20 | 0.00 | 69 | 1007.4 |
| 20260504221542 | 8 | 252 | 9.7 | 22.5 | 0.00 | 0.20 | 0.00 | 69 | 1007.4 |
| 20260504220045 | 8 | 246 | 9.7 | 19.3 | 0.00 | 0.20 | 0.00 | 69 | 1007.6 |
| 20260504214536 | 8 | 267 | 12.9 | 24.1 | 0.00 | 0.20 | 0.20 | 70 | 1007.6 |
| 20260504213038 | 8 | 0 | 4.8 | 17.7 | 0.00 | 0.20 | 0.20 | 71 | 1007.6 |
| 20260504211537 | 8 | 235 | 9.7 | 19.3 | 0.00 | 0.20 | 0.20 | 71 | 1007.7 |
| 20260504210053 | 8 | 242 | 12.9 | 25.7 | 0.00 | 0.20 | 0.20 | 71 | 1008.0 |
| 20260504204554 | 8 | 252 | 9.7 | 20.9 | 0.00 | 0.20 | 0.20 | 72 | 1008.0 |
| 20260504203044 | 8 | 0 | 8.0 | 14.5 | 0.00 | 0.20 | 0.20 | 73 | 1008.2 |
| 20260504201539 | 8 | 258 | 8.0 | 17.7 | 0.00 | 0.20 | 0.20 | 75 | 1008.4 |
| 20260504200037 | 8 | 244 | 12.9 | 20.9 | 0.00 | 0.20 | 0.20 | 73 | 1008.5 |
| 20260504194537 | 8 | 244 | 8.0 | 19.3 | 0.00 | 0.20 | 0.20 | 73 | 1008.5 |
| 20260504193037 | 8 | 0 | 8.0 | 19.3 | 0.00 | 0.20 | 0.20 | 74 | 1008.5 |
| 20260504191535 | 8 | 253 | 8.0 | 19.3 | 0.00 | 0.20 | 0.20 | 75 | 1008.2 |
| 20260504190035 | 8 | 250 | 8.0 | 16.1 | 0.00 | 0.20 | 0.20 | 76 | 1008.5 |
| 20260504184543 | 8 | 234 | 8.0 | 17.7 | 0.00 | 0.20 | 0.20 | 77 | 1008.5 |
| 20260504183038 | 8 | 210 | 11.3 | 32.2 | 0.00 | 0.20 | 0.20 | 77 | 1008.6 |
| 20260504181539 | 8 | 233 | 9.7 | 17.7 | 0.00 | 0.20 | 0.20 | 79 | 1008.5 |
| 20260504180037 | 8 | 0 | 8.0 | 20.9 | 0.00 | 0.20 | 0.20 | 81 | 1008.6 |
| 20260504174537 | 7 | 294 | 6.4 | 17.7 | 0.00 | 0.20 | 0.20 | 85 | 1008.8 |
| 20260504173041 | 7 | 231 | 11.3 | 19.3 | 0.00 | 0.20 | 0.20 | 87 | 1008.9 |
| 20260504171541 | 7 | 0 | 4.8 | 19.3 | 0.00 | 0.20 | 0.20 | 90 | 1008.8 |